Weather History for KNFL - May, 2012

Change the Weather History Date:

Friday, May 18, 2012

  Actual Average Record
Temperature  
Mean Temperature 60 °F -  
Max Temperature 73 °F 74 °F 97 °F (2008)
Min Temperature 46 °F 41 °F 27 °F (1974)
Degree Days  
Heating Degree Days 6    
Growing Degree Days 10 (Base 50)    
Moisture  
Dew Point 27 °F    
Average Humidity 34    
Maximum Humidity 59    
Minimum Humidity 12    
Precipitation  
Precipitation 0.00 in - - ()
Sea Level Pressure  
Sea Level Pressure 29.88 in    
Wind  
Wind Speed 7 mph (North)    
Max Wind Speed 12 mph    
Max Gust Speed 20 mph    
Visibility 10 miles    
Events      
Averages and records for this station are not official NWS values.
T = Trace of Precipitation, MM = Missing Value Source: NWS Daily Summary

Daily Weather History Graph

Daily Weather History Graph

Search for Another Location

Airport or City:

Trip Planner

Search our weather history database for the weather conditions in past years. The results will help you decide how hot, cold, wet, or windy it might be!

Date:

Astronomy

May. 18, 2012 Rise Set
Actual Time 5:37 AM PDT 8:05 PM PDT
Civil Twilight 5:07 AM PDT 8:35 PM PDT
Nautical Twilight 4:29 AM PDT 9:13 PM PDT
Astronomical Twilight 3:47 AM PDT 9:56 PM PDT
Moon 4:09 AM PDT (5/18) 6:18 PM PDT (5/18)
Length of Visible Light 15h 28m
Length of Day
14h 27m
Waning Crescent, 4% of the Moon is Illuminated
May 18
Waning Crescent
May 20
New
May 28
First Quarter
Jun 4
Full
Jun 11
Last Quarter

Hourly Weather History & Observations

Time (PDT) Temp. Dew Point Humidity Pressure Visibility Wind Dir Wind Speed Gust Speed Precip Events Conditions
12:56 AM 53.1 °F 35.1 °F 50% 29.81 in 10.0 mi NNW 8.1 mph - N/A   Scattered Clouds
1:56 AM 53.1 °F 36.0 °F 52% 29.82 in 10.0 mi NNW 8.1 mph - N/A   Mostly Cloudy
2:56 AM 54.0 °F 36.0 °F 51% 29.83 in 10.0 mi NNW 9.2 mph - N/A   Overcast
3:56 AM 54.0 °F 36.0 °F 51% 29.84 in 10.0 mi NNE 3.5 mph - N/A   Overcast
4:56 AM 48.9 °F 35.1 °F 59% 29.85 in 10.0 mi NNW 6.9 mph - N/A   Clear
5:56 AM 46.9 °F 33.1 °F 59% 29.86 in 10.0 mi NNW 6.9 mph - N/A   Clear
6:20 AM 48.2 °F 33.8 °F 58% 29.95 in 10.0 mi NW 8.1 mph - N/A   Scattered Clouds
6:56 AM 51.1 °F 35.1 °F 54% 29.89 in 10.0 mi NNW 6.9 mph - N/A   Scattered Clouds
7:56 AM 54.0 °F 35.1 °F 49% 29.90 in 10.0 mi NNW 10.4 mph - N/A   Partly Cloudy
8:56 AM 57.9 °F 34.0 °F 41% 29.91 in 10.0 mi North 10.4 mph - N/A   Partly Cloudy
9:56 AM 60.1 °F 33.1 °F 36% 29.91 in 10.0 mi North 11.5 mph - N/A   Partly Cloudy
10:56 AM 63.0 °F 28.0 °F 27% 29.91 in 10.0 mi NNE 8.1 mph - N/A   Scattered Clouds
11:56 AM 64.0 °F 25.0 °F 23% 29.92 in 10.0 mi Calm Calm - N/A   Scattered Clouds
12:56 PM 66.0 °F 24.1 °F 20% 29.91 in 10.0 mi Variable 4.6 mph - N/A   Mostly Cloudy
1:56 PM 68.0 °F 21.9 °F 17% 29.90 in 10.0 mi Variable 3.5 mph - N/A   Mostly Cloudy
2:56 PM 69.1 °F 19.0 °F 15% 29.89 in 10.0 mi Variable 4.6 mph 19.6 mph N/A   Mostly Cloudy
3:56 PM 72.0 °F 18.0 °F 13% 29.88 in 10.0 mi Variable 6.9 mph - N/A   Scattered Clouds
4:56 PM 71.1 °F 18.0 °F 13% 29.87 in 10.0 mi Variable 5.8 mph - N/A   Scattered Clouds
5:56 PM 73.0 °F 17.1 °F 12% 29.87 in 10.0 mi Calm Calm - N/A   Scattered Clouds
6:56 PM 72.0 °F 18.0 °F 13% 29.87 in 10.0 mi North 9.2 mph - N/A   Scattered Clouds
7:56 PM 66.9 °F 16.0 °F 14% 29.88 in 10.0 mi NE 4.6 mph - N/A   Mostly Cloudy
8:56 PM 60.1 °F 24.1 °F 25% 29.89 in 10.0 mi NE 5.8 mph - N/A   Partly Cloudy
9:56 PM 55.9 °F 25.0 °F 30% 29.91 in 10.0 mi NE 5.8 mph - N/A   Clear
10:56 PM 51.1 °F 21.0 °F 31% 29.91 in 10.0 mi Calm Calm - N/A   Clear
11:56 PM 50.0 °F 21.9 °F 33% 29.91 in 10.0 mi SW 4.6 mph - N/A   Clear